Location: Maignaut
(43.8886°N, 0.4051°E)
Time: 18:31:20
(UTC+00:00)

BREEZE-M DEB (TANK) - Pass Details

Date: 17 January 2021
Orbit: 325 x 13917 km, 49.6° (Epoch: 27 February)

Event Time Altitude Azimuth Distance (km) Brightness Sun altitude
Rises 17:49:49 0° 296° (WNW) 3,892 7.9 -10.9°
Reaches altitude 10° 17:53:27 10° 295° (WNW) 2,069 6.5 -11.5°
Maximum altitude 17:57:14 74° 210° (SSW) 404 2.2 -12.1°
Enters shadow 17:59:11 13° 125° (SE) 1,091 4.0 -12.5°
